Regional Weather Roundup
Issued by NWS

Home | Current Version | Previous Version | Graphics & Text | Print | Product List | Glossary On
Versions: 1 2 3 4 5 6 7 8 9 10 11 12 13 14 15 16 17 18 19 20 21 22 23 24 25 26 27 28 29 30 31 32 33 34 35 36 37 38 39 40 41 42 43 44 45 46 47 48 49 50
000
ASUS43 KLOT 242210
RWRIL

ILLINOIS REGIONAL WEATHER ROUNDUP
NATIONAL WEATHER SERVICE CHICAGO/ROMEOVILLE IL
400 PM CST WED DEC 24 2014

NOTE: "FAIR" INDICATES FEW OR NO CLOUDS BELOW 12,000 FEET WITH NO
SIGNIFICANT WEATHER AND/OR OBSTRUCTIONS TO VISIBILITY.

* THESE STATIONS ARE NOT UNDER NWS QUALITY CONTROL. THEY ALSO MAY NOT
  REPORT WEATHER SUCH AS PRECIPITATION OR FOG.

ILZ001-002-007-009-015-016-024-242300-
NORTHWEST ILLINOIS

CITY           SKY/WX    TMP DP  RH WIND       PRES   REMARKS
MOLINE         CLOUDY    37  31  78 W14       29.60R WCI  28
STERLING*      CLOUDY    36  30  80 NW15      29.56S WCI  26
SAVANNA*       CLOUDY    36  32  87 NW8       29.57S WCI  30
$$

ILZ003-004-008-010-011-017-018-242300-
NORTH CENTRAL ILLINOIS

CITY           SKY/WX    TMP DP  RH WIND       PRES   REMARKS
ROCKFORD       FLURRIES  36  32  85 W12       29.55R WCI  28
FREEPORT*      DRIZZLE   34  32  93 W8        29.56R WCI  27
ROCHELLE*      DRIZZLE   34  33  96 W12G17    29.54S WCI  25
DE KALB*       LGT SNOW  34  33  96 W9        29.52R WCI  26
PERU*          CLOUDY    36  35  95 W12       29.57R FOG     WCI  28
$$

ILZ005-006-012>014-019>023-242300-
NORTHEAST ILLINOIS

CITY           SKY/WX    TMP DP  RH WIND       PRES   REMARKS
CHICAGO-OHARE  CLOUDY    38  33  82 W9        29.50R WCI  31
CHICAGO-MIDWAY LGT RAIN  40  34  79 W12       29.51R
AURORA         LGT RAIN  37  33  85 W14       29.53R FOG     WCI  28
LANSING*       LGT RAIN  38  36  93 W8        29.51R WCI  32
JOLIET*        CLOUDY    37  34  88 W9        29.53S WCI  30
WAUKEGAN       CLOUDY    37  34  89 VRB6      29.48R WCI  32
DUPAGE AIRPORT CLOUDY    37  34  89 W9        29.50R WCI  30
KANKAKEE*      LGT RAIN  37  35  94 W15       29.54S WCI  28
WHEELING       LGT RAIN  38  34  85 W8        29.51R WCI  32
MORRIS*        CLOUDY    37  36  97 W13       29.53R FOG     WCI  28
ROMEOVILLE*    CLOUDY    37  35  94 W10       29.52R WCI  30
NORTHERLY ISL    N/A     40  33  76 W8          N/A
$$

LMZ740>746-242300-
SOUTHERN LAKE MICHIGAN

STATION/POSITION SKY/WX   TEMP    WIND        PRES    VSBY  WAVE
                          AIR SEA DIR/SP/G                  HT/PER
                          (F)     (DEG/KT/KT) (MB)    (MI)  (FT/S)
WAUKEGAN HARBOR            39                   N/A
HARRISON CRIB              39     270/ 15/ 18   N/A
BURNHAM HARBOR             40     270/  7/ 13   N/A
CALUMET HARBOR             39     240/  5/  9  997.9R
MICHIGAN CITY              37     240/ 11/ 12   N/A
$$

ILZ025>027-034>036-040-047-049-050-058-095>099-242300-
WEST-CENTRAL ILLINOIS

CITY           SKY/WX    TMP DP  RH WIND       PRES   REMARKS
QUINCY         CLOUDY    37  32  82 NW17      29.67R WCI  27
GALESBURG*     CLOUDY    35  33  92 W10       29.61R WCI  27
MACOMB*        CLOUDY    36  34  92 W15       29.65R WCI  26
JACKSONVILLE*  DRIZZLE   38  35  90 W14       29.66R WCI  29
PITTSFIELD*    CLOUDY    37  33  84 W8G17     29.68S WCI  31
$$

ILZ028>032-037-038-041>044-048-051>054-059>061-242300-
CENTRAL ILLINOIS

CITY           SKY/WX    TMP DP  RH WIND       PRES   REMARKS
PONTIAC        CLOUDY    37  36  95 W12       29.57R WCI  30
BLOOMINGTON    DRIZZLE   36  35  96 W8        29.59R FOG     WCI  30
DECATUR        CLOUDY    37  34  89 W13       29.62R FOG     WCI  29
PEORIA         LGT RAIN  37  32  82 W9        29.61R WCI  30
LACON*         DRIZZLE   35  33  90 W7        29.58R WCI  29
LINCOLN*       RAIN      38  35  90 W9        29.62R WCI  31
SPRINGFIELD    LGT RAIN  37  33  85 W16       29.64R WCI  28
TAYLORVILLE    CLOUDY    36  34  93 W14       29.65R WCI  27
$$

ILZ033-039-045-046-055>057-062-063-242300-
EAST-CENTRAL ILLINOIS

CITY           SKY/WX    TMP DP  RH WIND       PRES   REMARKS
CHAMPAIGN      CLOUDY    37  34  89 W20       29.59R FOG     WCI  27
DANVILLE*      RAIN      37  35  94 W10       29.54R WCI  30
RANTOUL*       CLOUDY    38  36  92 W20       29.57R FOG     WCI  28
MATTOON        CLOUDY    37  35  92 W15G28    29.61R WCI  28
PARIS*         LGT RAIN  38  37  97 W14       29.61R WCI  29
$$

ILZ079-100>102-242300-
SOUTHWEST ILLINOIS

CITY           SKY/WX    TMP DP  RH WIND       PRES   REMARKS
ALTON          CLOUDY    37  36  93 W10       29.70R FOG     WCI  30
BELLEVILLE     LGT RAIN  37  37 100 W8        29.70R WCI  31
CAHOKIA*       LGT RAIN  39  35  86 NW13G21   29.71R WCI  31
SPARTA*        CLOUDY    38  35  87 W12       29.72R WCI  31
$$

ILZ064>066-069>071-074>076-080>082-084>086-088>090-092>094-242300-
SOUTH-CENTRAL ILLINOIS

CITY           SKY/WX    TMP DP  RH WIND       PRES   REMARKS
CARBONDALE     LGT RAIN  40  35  83 W8        29.73R
CAIRO*         CLOUDY    44  37  77 SW10      29.76R
EFFINGHAM*     CLOUDY    39  34  82 W16       29.66R WCI  30
MARION         CLOUDY    41  37  87 SW12      29.73R
MT. VERNON     CLOUDY    39  34  81 W12G18    29.69R WCI  32
CENTRALIA*     CLOUDY    38  35  86 W15G22    29.69R WCI  30
SALEM*         CLOUDY    41  36  81 W13G21    29.68R
METROPOLIS*    DRIZZLE   41  40  96 SW3       29.74R
$$

ILZ067-068-072-073-078-083-087-091-242300-
SOUTHEAST ILLINOIS

CITY           SKY/WX    TMP DP  RH WIND       PRES   REMARKS
LAWRENCEVILLE  CLOUDY    40  37  89 W13       29.66R
FLORA*         CLOUDY    40  36  86 W13       29.67R
FAIRFIELD*     CLOUDY    40  37  86 SW8       29.68R
HARRISBURG*    CLOUDY    41  38  89 W7        29.73R
ROBINSON*      CLOUDY    39  36  89 W16       29.65R WCI  30
CARMI*         CLOUDY    42  39  89 SW7       29.69R
$$

ABBREVIATIONS USED IN REMARKS
   TC - TEMPERATURE IN CELSIUS
  WCI - WIND CHILL INDEX
   HX - HEAT INDEX
  VSB - VISIBILITY
$$



USA.gov is the U.S. government's official web portal to all federal, state and local government web resources and services.